Wind_Speed
17 16 16 16 16 16 16 16 15 15 15 15 15 15 14 14 14 14 14 14 15 15 16 17 17 21 22 22 24 26 26 26 24 21 20 20 18 18 19 15 13 15 16 13 12 12 12 13 14 16 14 11 10 9 12 12 9 8 7 10 11 11 12 13 14 13 12 15 14 9 10 11 8 8 5 4 7 7 8 11 10 9 7 8 29 36 33 32
17 17 17 16 16 16 16 16 16 16 16 16 16 16 16 16 14 14 14 15 15 14 16 17 17 20 23 23 24 25 25 25 24 24 26 25 21 20 22 19 16 15 13 12 13 14 13 12 14 15 12 9 9 11 12 11 11 10 8 10 11 12 13 13 16 15 15 17 15 11 9 5 4 8 3 5 8 8 10 12 11 11 6 18 28 30 30 30
17 17 17 16 16 16 16 16 16 16 16 17 17 17 17 17 16 16 15 14 14 14 15 16 17 20 23 24 23 23 24 24 21 18 19 21 24 25 25 23 20 18 15 14 16 16 15 14 15 14 12 10 10 12 13 11 11 11 10 10 11 14 15 16 17 17 19 19 17 13 4 5 5 6 2 4 6 9 11 10 11 11 13 21 21 24 26 26
17 17 16 16 16 16 16 16 16 16 16 17 17 17 17 17 17 17 16 16 14 13 14 15 17 19 22 25 23 23 22 19 12 2 5 11 16 19 22 23 21 20 18 17 18 17 17 17 16 14 13 11 11 13 13 12 10 10 11 12 13 14 15 17 18 19 21 15 11 12 3 4 8 6 5 7 7 8 11 10 11 12 16 22 21 22 21 22
17 17 17 17 16 16 16 16 16 16 16 16 17 17 18 18 17 18 18 18 16 13 14 14 17 18 21 25 23 21 17 9 1 9 8 7 7 9 12 15 18 19 17 17 18 18 17 17 16 14 12 11 12 12 14 16 13 10 14 17 16 16 15 15 19 21 20 11 6 10 9 5 7 7 10 10 8 8 10 9 8 10 18 24 22 21 20 20
17 17 17 17 17 17 17 17 17 17 17 16 17 17 18 18 17 18 18 18 17 15 13 13 16 17 19 23 23 19 12 5 3 6 5 2 1 4 5 6 10 13 14 16 17 17 16 15 14 13 11 11 14 15 14 17 16 11 13 17 18 19 17 15 17 14 10 10 9 10 11 10 6 8 11 10 9 11 12 9 6 6 16 25 21 21 20 19
18 18 18 18 18 18 17 17 17 17 17 17 17 17 17 17 17 17 17 17 17 16 14 12 14 15 18 22 21 16 11 12 15 9 6 3 2 3 5 6 7 10 14 17 18 16 15 15 14 12 11 12 14 16 16 17 18 15 13 16 18 18 19 19 19 11 4 8 11 9 9 13 12 10 11 10 10 12 14 10 6 7 10 24 20 20 19 18
18 18 18 18 18 18 18 17 17 17 17 17 17 17 17 17 17 17 17 16 16 16 15 12 13 14 16 18 15 11 10 16 19 10 5 3 3 3 6 9 10 14 16 19 19 17 15 17 16 13 12 13 13 15 17 16 17 18 16 15 16 16 18 19 20 15 9 6 8 11 12 14 14 12 12 10 12 13 13 11 8 10 8 20 21 19 17 16
19 19 19 19 19 19 18 18 18 17 18 17 17 17 17 17 17 17 16 16 16 16 15 13 13 13 15 15 11 10 11 17 15 6 3 4 6 5 8 11 11 14 17 20 21 19 16 14 17 15 13 13 14 15 17 16 13 15 18 16 15 17 17 17 17 18 13 7 8 12 15 15 13 13 12 12 14 11 12 14 10 11 12 15 19 17 15 16
20 19 20 20 20 20 19 19 18 18 18 18 18 17 18 18 17 17 16 16 15 15 15 14 12 12 15 15 12 11 11 12 10 6 4 4 6 6 9 11 9 11 15 19 21 21 17 15 16 15 13 13 14 15 16 15 12 14 17 17 19 19 17 15 16 18 16 12 12 13 14 14 14 13 10 12 16 12 13 12 9 13 13 13 18 15 14 16
20 20 20 20 20 20 20 20 20 19 19 19 19 19 19 19 18 18 17 16 15 15 15 14 13 12 15 15 11 12 12 11 8 7 7 5 8 9 11 12 9 10 13 16 21 23 21 19 16 11 10 11 13 16 16 17 15 15 16 17 20 20 18 17 16 16 14 12 14 14 14 14 14 14 12 14 16 16 18 13 10 15 11 15 18 15 14 13
20 20 20 20 20 21 21 21 20 20 20 20 20 20 20 20 20 19 18 16 16 15 14 15 14 13 16 14 14 20 23 25 26 23 18 12 12 13 13 14 12 12 12 12 17 23 23 23 20 15 11 10 12 13 13 17 17 15 16 15 15 16 18 20 18 14 12 11 12 12 13 15 15 16 16 17 17 18 18 14 14 16 12 15 18 15 14 14
20 20 20 20 20 20 21 21 21 21 21 21 21 21 21 20 21 20 19 17 16 16 14 14 14 16 16 11 16 26 27 30 33 31 26 20 18 17 16 16 14 15 15 14 14 18 22 23 22 18 14 12 12 10 9 13 15 14 16 13 10 11 14 19 19 16 15 12 13 12 10 13 15 18 18 17 19 15 13 14 15 15 13 14 17 15 14 16
20 20 20 20 20 20 20 20 21 21 21 22 21 22 22 21 22 22 20 19 17 16 15 14 15 16 14 11 20 29 29 31 31 30 29 23 21 19 18 18 17 17 17 17 16 16 18 23 22 16 14 14 12 12 11 10 10 12 14 11 9 9 10 16 19 17 16 12 15 15 9 10 14 18 19 17 18 14 13 15 15 14 13 12 15 15 15 15
20 20 20 20 21 20 21 21 21 22 22 22 22 22 23 23 24 23 21 20 18 16 15 15 16 15 11 13 21 25 27 31 31 34 32 24 21 19 17 18 19 19 17 17 17 15 15 19 18 13 12 15 14 13 12 9 8 10 11 10 10 10 10 15 19 19 17 13 16 16 9 10 14 16 19 18 18 18 16 15 15 16 12 9 8 6 8 13
20 21 21 21 22 21 21 22 22 22 22 22 23 23 25 26 26 24 21 19 18 17 15 13 16 15 8 11 17 18 19 23 27 32 31 27 24 20 17 18 18 19 18 17 16 14 14 14 13 12 12 14 14 11 9 10 10 10 11 10 11 12 10 11 16 21 21 15 16 17 11 9 12 16 17 17 20 19 16 15 17 12 3 12 12 7 3 3
21 21 21 22 22 22 22 22 22 22 22 23 23 24 26 26 25 24 21 20 19 17 16 15 15 13 10 14 18 16 17 19 20 22 24 26 27 23 19 16 15 18 18 17 17 14 13 11 9 10 11 11 12 11 10 11 10 10 10 10 12 14 12 11 13 19 23 19 16 18 14 13 13 16 16 18 20 20 17 15 9 6 13 13 9 7 7 8
20 21 21 22 22 23 23 23 23 23 23 22 23 24 26 25 24 23 21 18 16 15 16 15 12 8 8 15 19 20 20 14 12 14 16 21 25 25 21 15 13 16 16 14 15 14 11 10 9 10 11 12 12 12 12 11 11 11 11 10 11 14 14 14 13 14 23 21 17 17 16 17 17 18 19 17 21 21 16 11 11 18 16 10 7 8 8 6
19 20 21 22 23 23 24 24 24 23 22 22 22 23 24 24 22 20 19 16 11 10 10 10 12 8 6 9 16 19 17 12 8 10 13 16 21 23 22 17 15 16 14 11 13 15 11 9 11 11 12 14 15 15 15 13 13 15 14 12 12 13 13 15 16 14 21 19 17 17 15 16 18 20 22 17 20 19 8 14 15 17 15 11 7 6 7 3
20 20 22 22 23 24 25 25 23 22 21 19 19 18 16 14 11 8 10 13 12 13 13 10 15 16 15 16 12 9 11 11 11 11 13 14 18 20 19 16 15 15 14 12 13 14 12 11 13 14 15 17 19 20 19 17 16 17 15 13 15 14 12 15 17 15 20 15 16 18 17 16 17 21 23 16 16 15 14 19 14 14 13 11 9 6 7 7
21 21 21 22 23 24 25 24 22 20 18 17 15 12 8 8 8 6 5 8 14 18 21 18 17 20 20 21 18 12 8 9 11 13 14 14 17 17 15 15 16 13 14 16 13 12 13 13 15 17 18 19 20 21 20 19 20 18 14 13 14 14 13 15 17 16 19 14 13 18 18 16 17 20 20 13 13 13 17 18 14 15 13 10 11 10 8 7
21 21 21 23 23 24 24 22 20 18 16 15 13 11 9 11 14 12 8 8 13 17 20 22 22 20 20 24 23 19 15 10 12 13 16 17 16 15 14 15 15 13 16 17 12 12 13 14 17 20 19 18 20 21 20 19 21 18 12 12 11 12 14 14 17 19 16 10 10 16 16 15 17 18 18 13 11 13 17 18 15 14 13 10 12 12 10 10
21 21 22 22 22 23 22 20 19 17 14 13 13 13 13 15 17 17 11 8 12 15 16 17 21 20 20 24 24 19 16 13 11 11 17 19 15 15 15 16 16 15 17 18 14 12 12 13 18 20 19 20 20 20 21 18 16 16 12 11 10 12 13 12 15 20 15 10 9 14 13 12 13 15 17 9 13 19 19 19 15 13 13 13 14 13 14 14
22 21 21 21 22 23 20 20 20 16 13 14 16 14 13 13 14 14 8 5 10 14 16 17 18 17 19 22 22 19 16 14 12 12 16 19 15 14 15 16 17 16 16 21 21 16 13 14 18 20 20 22 20 20 22 16 12 15 16 13 11 13 16 13 13 15 13 12 10 11 9 9 11 13 14 4 18 19 18 18 14 11 11 12 13 13 15 15
22 22 21 21 21 21 21 19 16 12 10 13 13 10 10 9 8 7 3 4 8 10 16 18 15 16 22 24 23 18 15 14 15 14 14 18 17 13 12 13 13 15 19 23 22 15 14 15 18 22 22 23 22 18 20 16 10 14 18 18 15 14 17 17 15 12 10 9 11 11 8 7 11 14 14 8 16 14 14 17 16 14 14 13 12 14 13 13
22 22 22 21 20 21 20 12 9 11 11 8 7 8 9 7 7 5 2 4 8 9 14 15 11 14 21 21 18 16 15 15 16 18 16 17 18 14 11 10 9 14 18 18 15 9 12 17 19 22 22 23 22 16 19 19 12 10 15 19 20 16 15 19 18 11 8 8 11 13 10 6 9 14 15 11 17 17 13 15 16 15 16 15 13 14 14 13
21 21 22 21 19 18 14 10 14 16 10 6 8 8 8 7 6 4 2 5 6 6 13 13 10 13 19 19 18 17 12 9 13 20 20 17 18 15 13 12 10 13 14 11 10 9 13 19 20 22 22 20 18 14 18 21 14 10 14 18 20 19 17 20 18 11 9 8 8 14 13 8 8 11 15 15 16 20 16 16 17 16 16 16 16 16 15 14
22 22 22 21 19 17 16 16 18 15 8 10 13 9 7 7 5 2 2 5 3 1 6 10 10 12 14 17 21 18 12 8 12 17 21 21 19 15 14 16 14 15 16 12 10 11 15 19 20 22 20 15 15 16 19 20 15 11 13 17 19 18 18 18 16 12 10 8 7 13 15 9 8 8 13 16 15 18 18 18 17 17 19 18 17 18 17 15
22 23 22 22 21 19 18 17 17 16 13 11 11 9 6 6 4 1 3 5 4 6 4 3 6 8 11 16 20 19 15 10 10 13 19 21 20 15 12 14 16 16 18 16 12 12 14 17 19 20 17 13 15 18 19 18 15 12 14 17 17 16 16 12 10 12 10 7 8 13 15 10 8 7 10 13 14 15 15 16 16 18 19 18 17 17 16 14
25 25 23 22 21 18 15 13 14 16 13 8 8 9 7 4 2 3 5 3 4 7 8 2 5 9 12 14 17 19 18 14 8 14 16 16 19 18 11 12 15 13 15 17 15 14 14 15 16 15 15 14 16 18 17 17 17 16 15 16 15 13 12 9 9 10 9 7 11 15 17 14 9 7 9 9 12 17 14 13 15 17 18 17 17 16 14 12
28 27 25 23 21 17 12 9 9 8 6 7 9 8 6 3 2 4 5 1 3 6 7 4 6 8 13 15 13 16 19 16 10 18 15 12 16 16 11 11 11 10 12 13 14 16 17 16 13 12 15 16 16 16 16 18 19 17 14 12 12 10 8 7 8 8 7 8 13 18 19 17 10 7 9 10 13 21 18 15 16 18 19 17 16 16 14 11
29 28 27 23 20 17 13 10 9 7 5 8 8 5 4 3 3 6 3 2 3 4 7 7 11 11 9 16 13 15 17 14 12 19 15 12 13 13 12 11 9 10 12 11 12 15 14 14 14 13 17 19 17 14 14 15 16 15 12 10 11 9 7 8 8 8 8 8 11 16 18 15 10 8 10 11 12 20 19 19 19 19 19 18 17 17 14 11
31 29 26 20 16 16 13 11 10 7 4 5 5 2 3 4 2 3 4 4 2 2 5 7 12 16 10 13 14 16 17 13 14 18 16 14 13 13 15 15 14 12 10 11 13 12 10 14 19 19 17 19 18 13 11 12 14 15 13 10 10 9 8 9 8 7 8 7 9 16 16 12 8 8 13 15 9 16 19 21 21 20 20 18 18 18 15 14
30 24 19 15 14 14 13 10 7 5 2 2 3 2 3 5 3 3 4 4 3 4 7 8 13 15 9 12 14 15 14 12 16 16 14 15 12 12 14 16 19 14 8 12 11 10 12 12 16 18 12 13 16 13 12 12 12 14 14 11 11 9 7 8 7 7 8 7 10 14 11 9 7 4 10 13 6 9 13 18 21 19 18 17 17 17 17 15
24 17 13 11 11 11 10 9 7 4 2 2 2 3 4 4 3 4 4 4 5 7 10 12 12 8 6 11 14 18 15 10 16 15 12 13 12 12 13 13 19 16 10 11 9 10 14 11 13 15 13 15 17 15 15 14 11 11 13 12 10 11 8 5 7 6 4 5 8 9 6 6 4 1 5 8 6 8 11 17 19 17 17 17 14 14 14 13
18 12 9 8 9 7 5 6 5 3 3 3 3 4 4 4 3 3 3 4 6 8 13 13 6 4 6 8 11 19 17 10 15 13 10 13 13 14 15 12 16 18 13 11 7 9 12 10 14 17 16 20 20 18 17 14 10 9 12 13 11 13 10 5 7 4 1 4 6 6 7 4 4 0 3 2 6 9 9 15 18 16 17 17 13 11 12 12
15 11 8 7 8 5 4 4 5 5 3 2 4 5 4 4 5 4 4 6 7 6 9 7 1 1 5 7 10 17 16 10 14 11 8 12 12 14 17 14 16 20 16 12 8 9 10 8 14 19 16 17 19 20 19 16 12 9 10 12 11 12 11 6 6 4 3 6 5 7 11 8 6 4 2 5 10 10 8 11 16 16 15 15 14 12 13 12
14 11 9 7 5 4 5 5 6 6 3 3 6 7 6 5 3 4 5 6 6 4 5 4 0 1 2 3 8 17 15 9 12 12 9 11 10 14 18 14 16 21 20 15 9 8 10 7 11 20 18 16 17 17 16 17 18 14 9 11 10 10 10 7 6 5 6 7 5 9 14 10 7 7 8 9 11 12 10 10 13 16 14 13 15 15 14 12
12 8 5 2 1 4 5 5 6 5 3 5 6 5 6 5 4 5 5 5 4 4 5 5 2 3 5 5 6 12 14 10 11 11 9 9 9 15 18 13 15 20 20 16 10 8 10 7 8 17 20 16 13 12 12 14 17 15 11 12 10 8 8 8 6 6 7 6 6 9 11 8 8 8 12 14 12 12 12 9 10 15 15 14 14 14 13 10
7 4 2 3 2 3 4 5 6 4 4 5 5 6 8 7 6 6 5 3 3 3 4 6 5 5 6 6 8 7 11 12 12 10 9 9 10 14 19 15 14 19 20 18 12 8 9 5 5 13 18 15 11 11 13 13 13 13 12 13 11 8 7 8 7 7 7 7 6 6 7 7 5 5 11 16 13 12 12 10 8 10 16 17 14 13 12 9
5 3 0 3 2 3 3 4 5 4 5 6 5 8 9 8 8 8 6 4 4 4 5 7 8 7 6 6 7 7 8 9 11 11 8 10 10 9 15 17 15 17 18 16 13 9 6 4 5 9 12 12 11 12 14 15 14 12 11 11 12 10 8 8 9 9 8 7 6 6 7 5 1 3 6 12 13 13 13 12 9 9 15 20 16 15 15 12
7 4 1 4 3 2 2 5 5 4 5 6 7 8 7 7 8 9 8 7 6 4 5 6 7 7 6 7 7 8 8 6 12 11 6 11 11 8 14 19 17 17 14 11 13 11 5 3 6 7 9 11 14 15 17 19 18 15 12 11 12 12 10 8 7 8 8 8 8 7 6 1 3 3 1 5 9 11 11 12 10 8 12 20 19 17 17 15
6 5 1 4 4 2 4 5 5 4 4 6 8 10 9 7 8 9 8 6 5 3 3 4 6 6 5 6 6 10 12 7 13 12 8 12 11 11 18 20 17 18 14 10 11 10 3 3 7 8 8 10 14 16 17 19 16 13 13 12 11 12 11 9 8 7 6 7 7 6 5 2 4 5 5 2 7 11 10 10 9 8 13 19 20 18 16 16
6 6 2 5 5 2 4 5 6 6 6 8 10 11 9 5 5 7 7 5 3 3 3 4 5 5 6 6 6 11 14 8 12 12 9 11 10 11 19 22 16 15 13 9 8 7 3 6 9 8 9 10 11 13 15 17 15 11 12 14 14 15 16 13 9 6 4 8 11 7 4 4 3 3 3 2 3 6 6 9 13 15 16 17 17 16 16 16
6 6 2 3 6 4 5 4 6 8 9 11 12 11 9 6 5 6 7 7 5 4 4 5 6 7 8 9 8 10 13 9 10 9 8 10 9 9 16 20 16 15 15 11 9 8 5 7 9 8 9 10 11 10 11 12 12 10 13 17 18 18 19 14 7 5 5 9 13 8 3 6 5 5 4 5 10 11 11 14 16 15 16 16 14 13 14 14
5 3 4 2 3 5 6 6 7 8 7 9 9 9 10 9 8 5 4 5 4 6 7 7 8 9 8 8 7 7 10 12 9 6 8 10 8 8 15 17 15 17 16 10 7 9 5 6 10 11 10 10 11 11 12 12 12 13 16 20 19 17 17 11 6 6 7 8 10 6 5 9 7 7 9 8 12 11 9 12 14 13 14 15 14 12 12 11
3 2 4 5 4 5 5 5 6 6 7 8 6 8 11 12 10 6 1 2 6 9 8 6 6 7 7 7 6 6 7 10 11 8 9 10 8 10 15 14 14 15 11 6 6 8 5 6 12 15 13 12 13 14 16 17 16 16 17 20 20 18 18 13 7 8 9 7 7 5 10 9 7 8 10 10 11 11 10 11 12 11 11 12 13 13 13 13
4 3 4 5 5 5 7 8 10 11 12 10 6 8 12 12 10 7 3 4 7 8 5 4 6 7 9 10 6 5 8 4 9 10 9 10 9 10 13 14 15 13 10 7 9 8 5 7 12 13 14 14 14 16 17 17 17 17 17 18 19 20 20 15 8 11 12 8 5 6 11 9 7 8 9 11 12 11 12 11 10 11 11 12 14 15 14 14
4 4 4 6 5 8 11 13 14 14 14 10 5 6 10 11 11 10 5 3 5 6 4 4 8 9 9 9 5 3 5 4 3 2 3 4 10 10 9 12 14 12 11 10 9 7 5 6 10 12 13 12 12 14 16 16 16 18 19 18 16 17 20 18 12 13 13 10 8 6 7 8 9 9 9 12 14 12 12 12 11 13 13 12 13 15 14 14
3 3 4 6 7 9 11 11 11 11 10 8 5 5 9 10 11 10 6 2 3 4 2 2 7 10 6 5 4 2 2 6 6 6 9 5 7 11 8 8 11 13 14 11 7 7 5 5 8 10 9 10 12 13 15 15 15 17 18 19 17 16 18 18 14 11 10 11 11 10 7 4 6 8 10 13 15 13 13 13 12 14 14 13 14 15 14 12
6 7 6 6 6 8 8 8 9 9 7 5 5 7 10 10 11 12 9 2 6 6 4 4 6 6 3 2 5 5 6 7 7 9 11 9 4 8 7 9 11 13 12 11 8 8 5 4 6 8 7 8 11 13 14 16 15 15 16 18 18 15 14 14 13 11 10 10 10 10 6 3 6 9 11 12 14 14 14 13 12 12 14 15 15 16 15 12
10 8 7 6 5 7 8 8 9 8 5 6 8 10 11 12 12 12 9 3 6 7 8 10 8 4 4 0 4 5 5 6 10 11 10 9 8 7 8 9 11 12 11 10 7 8 6 5 5 7 6 7 10 13 10 10 12 12 12 15 18 15 13 14 15 15 13 9 7 7 5 6 9 10 10 11 13 13 12 12 11 12 14 15 14 15 15 14
Wind_Direction
349 346 340 335 332 330 330 330 326 319 309 298 288 285 285 290 297 300 304 308 313 317 319 321 324 320 317 318 316 316 319 312 303 292 271 259 258 251 249 246 229 236 247 244 250 255 244 238 224 216 220 220 221 226 227 226 222 219 219 231 239 238 237 242 245 248 254 263 271 256 232 235 235 226 174 156 226 227 251 261 248 234 239 119 113 123 135 140
350 350 349 344 341 337 333 331 329 328 324 317 307 298 290 284 285 290 296 301 306 312 316 319 320 316 316 319 318 319 319 306 293 282 269 260 256 251 249 250 243 238 240 234 235 235 229 228 218 211 216 218 214 217 221 220 217 220 223 227 234 240 242 246 248 254 257 261 270 246 206 194 231 245 185 162 222 219 225 239 233 226 151 112 120 128 135 140
346 345 347 347 345 342 338 336 332 330 327 326 322 316 308 296 287 283 287 291 296 305 311 315 317 315 318 321 319 322 318 302 288 276 264 249 239 241 245 249 247 239 233 232 233 232 233 233 223 211 214 221 216 212 214 215 216 218 226 233 233 238 247 251 250 253 255 257 264 256 158 120 238 256 189 178 234 246 243 226 215 213 136 119 124 129 135 140
341 341 342 342 342 342 340 339 335 332 328 327 325 322 320 312 301 292 287 285 287 297 304 310 314 314 318 321 322 323 316 297 287 260 181 203 216 228 235 240 242 238 234 235 240 243 246 247 239 220 215 222 219 216 215 214 215 215 221 234 238 239 243 247 254 255 255 260 270 282 356 152 228 250 239 228 240 245 251 246 227 210 146 130 134 135 138 141
336 336 338 337 338 338 338 338 335 332 329 327 325 324 323 319 313 304 295 288 285 286 296 304 307 313 318 319 322 319 310 293 35 103 135 174 193 215 230 237 235 233 231 233 238 245 250 253 248 230 220 221 220 219 217 216 217 218 222 233 240 245 247 239 243 249 254 259 253 271 286 241 209 227 239 231 239 242 250 270 265 221 149 138 143 139 143 147
333 332 333 332 333 333 333 333 332 331 330 328 325 323 322 319 316 311 304 296 289 283 287 298 302 311 314 316 317 304 285 276 50 98 148 192 227 223 209 217 224 223 225 229 231 234 236 241 240 230 223 220 221 222 219 215 218 224 225 231 235 240 251 250 246 249 258 256 237 242 264 273 257 246 244 221 231 252 264 286 289 240 144 140 145 141 146 153
331 330 330 329 329 328 329 329 328 329 328 327 325 322 319 318 316 314 310 302 296 287 283 291 299 306 312 318 312 286 252 263 285 273 239 256 297 258 198 203 224 219 220 224 223 223 224 227 228 223 223 221 222 225 225 218 218 227 228 231 235 234 242 252 260 270 272 252 255 256 254 262 261 256 249 222 232 248 262 275 258 259 154 141 143 144 150 160
328 327 327 326 326 325 326 324 324 324 324 324 323 320 317 315 314 312 311 306 300 291 283 283 293 302 311 316 308 284 248 257 271 255 230 246 228 241 231 235 233 215 215 220 219 218 219 223 223 221 224 223 223 226 227 225 219 224 230 232 236 237 236 242 255 260 249 232 247 260 258 257 253 256 256 236 239 237 245 254 229 251 205 150 145 148 153 158
322 323 323 322 322 322 322 321 321 320 320 320 319 319 314 310 310 309 309 306 302 294 284 276 283 298 305 301 291 283 264 262 266 220 192 243 212 225 248 252 238 209 210 219 220 219 218 221 221 221 230 229 228 229 227 229 222 219 227 234 238 242 239 234 243 247 244 231 223 239 247 252 251 256 258 244 247 241 235 238 210 230 229 160 145 152 152 144
318 318 317 317 318 317 317 317 318 317 317 316 315 316 312 309 305 303 305 303 301 295 285 275 275 287 294 289 274 268 264 265 261 224 229 244 228 249 252 250 247 223 219 218 218 221 220 221 222 223 236 239 235 235 230 229 231 224 223 230 237 243 245 237 237 239 236 229 225 235 242 244 243 243 244 239 244 246 245 237 195 220 223 149 141 150 146 139
319 317 316 316 314 313 313 312 312 313 314 313 312 312 310 309 303 300 300 298 297 293 285 276 271 274 279 280 267 255 257 272 286 288 291 267 247 256 252 250 249 243 238 223 217 220 223 226 227 225 229 235 240 240 236 235 240 238 231 231 231 234 244 244 238 236 233 228 224 234 248 247 240 234 233 236 233 229 236 231 204 226 209 141 145 151 146 141
323 321 318 317 314 312 310 308 308 307 308 309 309 309 307 307 303 298 295 294 294 289 283 276 268 265 269 269 254 252 263 281 293 298 292 275 264 262 258 256 251 247 249 242 225 219 222 227 229 230 225 225 235 240 238 236 240 243 240 242 235 228 236 241 240 231 228 233 225 228 246 245 238 235 232 233 237 228 220 218 218 223 204 159 154 154 153 143
325 323 320 318 316 314 311 308 305 304 304 304 304 305 304 302 300 295 291 290 289 284 280 274 266 262 264 262 256 259 267 276 281 284 279 271 268 265 258 252 247 244 246 255 248 227 221 224 230 235 235 231 229 237 245 236 237 239 238 241 239 232 231 232 234 227 222 228 224 222 237 239 232 235 233 228 234 226 197 214 227 218 212 185 158 152 155 145
325 323 321 319 317 315 313 309 306 303 301 300 300 301 299 297 295 293 289 284 282 281 278 270 265 262 259 262 268 267 264 263 266 269 266 262 259 256 250 243 240 238 239 248 255 251 232 223 229 236 238 242 238 238 243 239 236 234 233 233 229 235 232 223 222 219 218 217 216 221 234 242 234 228 228 228 227 207 191 219 229 219 210 181 153 146 148 143
324 323 321 319 317 315 313 310 308 304 301 298 297 296 294 292 291 292 288 280 277 275 272 266 257 255 264 269 271 273 264 253 251 252 252 251 249 247 241 235 232 230 231 238 245 255 247 227 226 231 231 238 245 242 234 229 231 226 225 225 221 231 237 223 213 209 216 213 207 218 232 239 243 233 216 218 226 209 201 219 225 223 202 136 102 101 138 143
324 322 321 319 317 315 313 311 308 304 301 297 294 293 291 289 289 290 285 277 273 267 261 259 248 243 259 270 268 277 265 243 240 243 241 239 240 238 235 230 224 223 223 228 232 239 245 235 225 230 228 227 232 235 231 223 218 217 219 220 217 220 233 231 210 202 209 212 205 213 231 236 241 246 219 202 223 218 198 212 222 224 150 82 63 27 356 113
323 322 321 319 316 314 312 310 308 305 301 297 294 291 289 290 289 285 281 273 267 261 249 245 249 246 253 270 274 273 258 238 232 236 229 226 229 229 231 227 216 213 213 218 222 223 229 231 220 223 226 223 219 217 226 222 209 210 213 220 224 219 222 231 219 198 197 208 210 207 223 242 239 247 232 197 211 222 199 202 207 86 56 57 56 45 26 10
323 322 321 319 317 314 312 309 307 304 300 296 292 290 292 295 288 279 275 262 253 252 246 243 251 260 251 246 247 248 254 248 219 221 224 214 213 218 221 222 210 202 204 209 213 212 212 216 215 215 215 216 215 209 216 216 206 209 207 210 224 226 221 221 229 200 185 199 215 211 215 234 243 250 246 207 199 220 202 161 102 85 75 59 38 45 59 10
325 323 321 320 317 315 312 309 305 302 299 296 294 296 297 291 278 264 254 241 229 229 234 222 206 225 281 248 234 237 250 262 237 226 229 206 197 206 214 220 212 196 199 200 197 201 201 203 211 215 212 208 210 210 214 216 212 212 208 209 214 226 224 217 233 207 177 191 212 220 218 222 237 246 252 232 199 207 162 100 91 96 98 92 74 55 81 73
327 325 322 320 319 317 313 309 305 300 297 295 297 302 300 287 271 254 242 234 230 231 240 226 196 216 267 285 278 243 212 226 238 230 226 206 187 195 207 214 209 197 201 200 189 192 197 204 209 212 210 206 208 213 215 218 224 220 212 213 212 225 228 212 230 208 172 189 210 217 225 219 230 241 250 248 197 172 98 88 97 103 108 119 127 112 100 116
326 325 323 322 320 318 315 313 307 300 294 288 289 292 292 300 304 326 323 261 245 240 246 248 224 218 242 267 281 280 249 225 219 218 221 208 187 190 199 203 204 197 199 202 191 187 199 211 211 210 210 207 207 213 215 216 230 236 223 220 213 218 231 215 223 213 176 187 211 212 224 220 224 243 251 235 180 141 99 100 108 110 118 131 137 140 132 135
324 323 324 323 321 319 319 317 309 299 290 279 274 268 274 293 298 312 322 286 263 249 246 251 248 238 236 250 262 274 282 258 222 216 210 202 195 192 190 195 203 195 192 200 194 186 203 216 211 208 210 211 209 210 215 215 226 243 236 231 223 207 230 225 219 220 190 178 214 208 216 223 222 241 252 224 160 111 106 118 119 122 131 138 143 146 148 148
323 323 323 322 322 322 320 317 309 298 283 269 262 263 277 289 299 313 315 288 278 262 246 242 247 247 240 245 251 253 259 249 239 228 200 196 202 198 191 195 201 194 190 198 199 192 202 213 208 206 208 213 213 206 211 216 219 237 237 236 234 205 218 227 215 218 194 168 217 210 204 226 222 230 250 228 120 108 118 127 132 141 146 148 151 148 149 153
323 323 322 323 323 322 320 315 304 289 269 262 262 270 292 302 309 323 325 282 274 262 248 237 234 240 237 241 246 242 243 240 241 235 200 191 199 202 200 197 198 199 195 199 205 205 206 204 200 204 206 209 213 205 205 213 214 226 233 235 239 217 214 225 220 211 188 174 212 225 207 220 226 222 233 159 105 118 131 133 139 143 141 140 144 150 155 159
324 322 322 324 323 321 321 312 297 286 277 271 271 284 306 320 336 349 354 272 269 259 247 234 229 236 229 232 239 236 240 235 232 235 212 197 200 200 202 201 201 205 199 198 205 212 210 200 195 202 205 204 211 208 201 207 212 220 228 231 238 232 214 219 222 196 183 191 198 219 232 213 218 223 218 155 113 128 142 141 145 138 138 143 146 156 164 168
324 322 322 322 321 322 321 308 301 311 304 293 305 310 308 326 348 353 344 269 275 259 231 211 207 219 213 217 222 219 236 235 221 229 227 212 207 205 205 200 204 210 201 196 205 217 211 199 194 201 203 202 208 211 201 202 212 216 217 224 238 242 217 212 215 182 175 214 190 202 236 230 209 216 218 185 132 137 152 147 148 143 145 154 158 165 169 173
325 323 322 322 319 320 317 306 312 313 301 312 333 322 320 340 341 336 294 264 274 242 214 195 176 180 190 203 198 196 224 213 196 219 226 214 207 213 216 198 197 212 202 194 204 209 207 200 194 198 203 201 205 210 202 199 212 217 202 213 232 244 234 215 208 182 172 207 203 202 219 241 228 203 207 201 149 142 156 153 151 152 153 159 163 169 170 172
324 323 323 321 315 309 302 296 301 302 296 313 319 316 335 340 319 309 255 260 304 11 203 189 174 170 182 194 190 199 220 175 170 205 213 210 205 208 221 208 199 206 203 202 203 196 203 204 193 194 203 202 201 210 204 198 211 217 196 208 226 239 245 228 211 204 190 192 221 212 205 227 246 201 196 201 165 146 155 155 156 158 159 163 164 167 170 174
322 323 322 319 313 306 297 286 283 290 298 304 305 313 327 319 307 260 239 269 337 6 360 142 173 198 195 183 185 205 221 201 176 183 196 207 206 207 226 219 206 205 208 212 209 194 199 208 197 191 204 205 198 208 206 197 207 216 203 206 218 233 246 246 236 229 212 201 230 217 196 208 242 218 206 203 169 151 157 155 159 165 164 166 167 165 165 171
324 321 321 319 311 305 299 284 276 283 291 295 299 306 297 276 265 224 238 274 357 357 345 330 202 215 197 176 184 201 213 220 180 159 184 199 199 209 230 230 220 209 208 213 216 206 191 202 206 194 202 206 197 204 206 198 202 214 215 205 205 223 236 252 260 236 213 211 231 226 204 199 227 227 220 217 164 150 158 161 160 165 166 167 167 160 160 170
323 319 320 318 304 301 302 287 284 284 287 300 300 295 277 251 237 241 231 214 334 344 346 309 279 250 202 181 185 195 210 229 180 155 182 192 187 204 217 222 225 210 204 207 214 213 192 192 208 196 197 205 197 197 204 203 201 209 222 208 193 208 220 238 252 226 211 212 219 231 219 199 211 227 225 226 170 149 155 166 166 166 165 166 164 158 161 175
322 319 319 314 297 292 284 276 297 305 301 308 303 291 269 249 226 246 263 4 295 334 360 328 320 311 229 191 189 192 206 227 187 163 180 188 180 197 207 206 203 195 199 194 198 213 198 187 203 197 194 204 198 190 200 202 197 206 222 211 191 194 198 219 230 209 213 224 212 225 226 209 209 220 235 238 182 157 159 164 169 172 168 164 165 162 162 173
325 321 317 308 293 282 272 276 296 292 295 315 299 272 269 277 254 249 295 345 315 325 338 310 312 315 271 202 189 191 205 213 183 170 179 187 183 192 207 212 207 201 198 186 187 203 192 185 202 198 189 200 197 184 194 193 188 201 214 209 195 190 189 204 218 207 212 235 229 225 227 221 209 205 235 249 200 164 166 163 168 174 169 164 163 160 157 166
327 323 312 298 284 274 269 274 275 263 277 314 279 243 275 285 290 292 302 322 320 302 302 304 308 308 269 210 190 184 204 205 177 173 179 185 187 188 204 213 210 208 197 186 185 192 194 189 197 195 182 196 201 196 198 189 186 201 212 218 208 197 196 198 207 208 206 221 231 231 228 218 211 202 234 244 210 160 161 158 163 168 164 159 158 158 156 157
329 329 314 291 279 270 261 256 248 244 260 283 279 262 275 285 284 304 314 317 326 315 304 304 296 280 219 214 203 186 203 204 172 176 185 187 190 187 196 206 206 208 200 186 180 189 201 191 180 181 174 188 207 220 210 192 189 201 210 219 210 197 195 195 212 214 208 225 221 226 235 208 196 318 273 242 197 150 142 148 158 162 158 152 145 146 145 139
329 330 311 274 266 261 235 227 216 202 233 276 291 260 266 284 272 300 333 319 319 319 313 312 295 240 204 214 204 191 205 200 170 179 190 190 196 192 195 203 203 209 205 184 177 187 196 185 176 182 184 188 204 223 218 198 189 198 208 210 202 205 206 190 206 196 84 250 213 201 227 190 136 145 293 240 135 128 133 147 157 160 155 144 126 118 123 121
324 322 300 261 254 240 206 200 182 189 224 270 276 269 278 266 238 255 309 323 321 317 314 320 13 270 224 205 195 188 192 182 175 189 187 187 200 193 195 204 204 212 213 196 190 186 182 175 179 189 197 195 201 218 219 202 193 202 204 195 191 217 229 215 202 179 180 233 215 200 214 196 164 185 185 138 133 139 152 149 151 154 147 132 117 113 122 127
316 315 297 273 249 209 198 193 185 203 235 256 259 264 275 274 251 276 305 322 318 295 296 302 308 333 296 226 202 186 180 171 181 193 183 184 199 190 193 202 203 215 219 202 193 185 183 177 174 185 196 197 197 215 218 197 200 214 201 181 189 217 225 215 205 193 196 214 219 217 213 204 202 186 160 168 164 159 166 154 148 154 147 126 117 122 133 140
311 310 299 299 212 192 182 187 203 224 242 256 268 267 275 298 317 309 321 337 311 278 288 308 307 310 321 308 245 195 183 176 182 194 189 186 192 186 192 199 197 213 219 204 190 186 193 191 166 180 190 188 187 211 216 190 197 218 205 186 204 224 218 213 208 201 203 207 212 219 214 208 217 190 169 179 174 162 170 170 160 156 147 137 130 134 145 153
310 301 305 67 106 186 170 198 230 244 241 255 284 280 287 318 329 316 335 344 298 278 293 313 313 309 317 310 292 241 199 181 182 197 194 186 183 179 190 195 192 206 216 213 203 186 191 197 164 178 185 186 188 204 210 190 188 213 209 192 201 219 217 214 211 203 207 209 202 218 224 207 210 214 190 182 169 165 178 178 173 160 142 139 144 144 147 154
309 294 271 100 123 168 178 232 244 254 256 262 273 270 287 324 324 317 334 316 286 276 279 292 288 290 307 300 291 271 229 190 186 204 192 181 187 181 188 191 189 198 208 216 210 184 184 188 156 172 182 190 196 198 206 202 193 205 214 198 196 207 212 210 212 209 209 212 204 217 232 205 122 302 210 181 170 174 180 173 178 182 149 140 147 148 144 151
298 304 95 125 156 184 247 266 259 254 254 266 286 298 319 329 312 314 323 310 299 275 256 271 271 271 275 265 271 283 270 202 186 206 187 175 190 185 182 187 190 193 199 215 201 177 176 169 151 179 194 193 192 191 209 217 204 201 216 210 196 202 213 210 208 208 206 211 211 215 221 186 25 355 98 143 170 178 182 181 187 188 144 132 139 144 140 146
312 327 66 148 175 228 278 283 281 269 260 282 304 322 332 319 309 316 317 308 306 283 246 251 254 248 250 256 277 295 285 221 191 206 180 167 188 192 182 182 188 190 193 211 193 166 158 167 160 184 197 196 194 190 206 222 214 202 213 221 210 202 208 216 217 208 204 212 210 208 203 155 37 22 43 77 187 186 188 185 163 123 114 125 135 139 138 142
315 307 268 172 175 231 277 290 310 312 310 313 319 328 328 318 312 306 299 294 283 261 252 255 258 258 271 284 286 285 280 233 192 203 187 166 183 197 181 173 180 190 190 204 184 147 156 178 168 181 183 184 193 188 199 215 217 205 200 214 224 209 198 211 228 214 205 222 219 213 192 157 100 52 34 20 169 161 145 127 113 105 113 125 130 134 140 141
309 297 282 183 182 228 267 283 306 305 311 320 321 322 323 323 312 300 295 294 280 268 275 275 282 286 283 283 275 269 269 241 192 197 194 168 169 193 179 169 179 191 193 203 176 149 176 179 168 186 185 181 193 193 191 200 210 210 199 210 226 220 204 203 214 209 201 217 225 228 149 131 128 132 137 80 67 72 82 95 102 110 118 123 127 133 139 137
316 308 323 312 217 257 268 266 281 283 300 320 317 316 325 326 327 338 319 301 317 326 307 286 288 293 289 287 282 262 243 219 194 192 188 168 163 180 174 174 189 192 195 209 173 158 185 186 188 202 196 191 201 196 184 186 202 207 200 206 215 221 222 215 193 207 209 206 230 237 141 138 147 155 155 122 92 87 88 96 103 112 119 126 132 129 124 126
319 323 336 336 312 299 290 281 293 294 302 316 312 313 323 327 336 359 359 310 342 336 316 293 289 295 301 300 291 281 255 208 186 188 181 167 160 154 157 178 206 205 207 225 185 176 187 192 202 210 206 202 202 196 186 187 204 210 206 208 203 203 226 235 204 204 213 214 226 182 131 142 164 160 153 138 118 110 108 107 108 112 117 121 123 120 117 124
342 323 331 335 312 308 315 313 315 313 310 314 309 306 317 328 339 347 341 326 332 333 325 307 311 318 308 297 280 292 307 252 192 183 164 162 160 142 153 186 206 207 205 203 186 182 194 202 202 210 219 211 195 197 196 189 199 213 217 218 205 198 219 235 215 203 213 230 231 151 136 153 169 162 157 147 133 121 116 115 112 113 111 108 116 124 129 136
344 318 333 345 315 297 300 301 302 304 308 313 305 302 317 329 336 339 344 333 316 333 351 308 319 333 315 298 290 286 321 321 240 158 90 166 172 152 162 189 191 186 188 193 186 177 192 209 201 208 225 220 203 204 199 188 195 206 211 217 209 202 218 227 218 207 210 227 238 210 183 182 175 171 161 136 124 122 121 121 126 130 125 119 126 133 139 145
346 308 324 329 307 295 293 297 300 300 306 310 299 307 320 326 333 333 334 328 295 330 17 253 297 319 309 300 311 285 345 356 336 347 356 333 179 162 172 189 178 173 183 196 191 171 182 214 215 215 218 223 240 232 198 186 202 207 207 212 210 207 216 221 221 218 217 221 226 230 236 215 162 141 129 122 122 130 134 136 142 143 137 135 139 141 143 142
325 300 311 311 303 305 303 305 308 303 307 316 316 324 326 328 334 329 325 283 212 238 273 287 312 345 22 350 323 323 352 354 315 305 327 325 238 176 180 196 181 169 182 200 185 164 184 236 230 221 210 211 242 241 202 187 201 208 209 212 212 211 212 211 215 221 222 219 218 224 229 175 117 113 119 131 137 140 144 149 152 150 146 147 149 148 144 135
330 313 319 311 294 301 307 309 306 302 315 335 335 334 329 326 327 327 327 301 220 252 302 319 328 18 88 355 307 315 320 301 283 289 310 306 268 202 181 201 187 171 182 192 175 167 188 237 229 206 205 206 222 237 229 205 203 205 207 209 209 213 212 208 209 210 211 217 219 217 194 120 116 131 144 149 149 148 152 155 155 156 155 153 151 148 140 131
Height
815 814 813 812 811 810 809 808 807 806 806 805 804 804 803 803 802 802 801 800 800 798 798 796 794 793 790 788 785 783 781 777 774 771 767 761 761 761 760 760 761 762 763 764 764 764 762 760 758 758 758 757 757 755 752 748 745 751 760 768 766 760 754 745 741 737 734 730 719 713 713 719 724 719 712 717 726 729 731 728 724 721 719 722 725 730 737 744
815 814 812 811 810 809 809 808 807 806 805 804 803 802 802 801 801 800 800 799 799 798 797 796 794 792 789 787 784 783 780 776 772 766 759 757 759 759 758 759 760 761 762 763 762 761 760 757 755 755 756 756 754 752 752 747 744 751 758 763 760 751 743 734 731 728 726 726 719 714 712 716 725 721 714 726 735 730 734 733 726 726 726 727 728 733 739 743
815 814 812 811 810 809 808 807 806 805 804 803 802 801 800 800 799 798 798 798 797 797 796 795 794 791 789 786 783 782 780 775 768 758 751 752 754 755 756 757 758 759 761 761 760 759 757 754 751 752 754 755 751 748 751 746 744 747 751 758 752 742 737 729 725 724 720 718 717 714 711 719 724 718 718 730 736 732 733 730 728 731 733 734 733 735 740 743
815 813 812 811 810 809 807 806 805 804 803 802 801 800 799 798 798 797 797 796 796 795 795 794 793 791 788 785 783 781 780 773 759 749 748 749 751 753 754 755 756 758 759 759 759 758 756 753 749 748 752 754 748 745 747 744 742 743 745 751 742 735 736 729 723 720 715 711 715 715 716 725 723 718 722 729 737 738 730 721 721 725 729 733 735 737 740 743
814 813 811 810 809 808 807 806 804 803 802 801 800 799 798 797 796 796 795 795 794 794 793 793 792 790 788 785 783 781 782 770 750 746 749 749 751 752 753 753 755 756 757 759 758 757 756 753 749 747 748 751 748 745 744 738 736 741 740 740 736 733 734 726 719 717 712 710 717 722 725 725 720 722 724 727 738 737 723 714 711 712 719 728 732 736 738 741
814 812 811 810 808 807 806 805 804 803 801 800 799 798 797 796 795 795 794 793 793 792 792 792 791 790 788 786 782 782 782 765 746 749 750 749 752 752 753 753 753 755 756 758 757 756 754 752 750 749 747 747 747 744 740 733 732 740 739 734 732 731 730 722 714 712 711 714 722 726 726 722 722 727 722 723 732 726 713 709 708 706 712 722 726 731 736 740
813 811 810 809 807 806 805 804 803 801 801 799 798 797 796 795 794 794 793 792 791 791 791 791 790 789 787 785 781 778 776 760 747 750 750 749 751 751 752 752 752 754 755 756 754 753 752 751 750 748 746 746 745 741 736 731 729 737 738 733 729 727 727 722 714 712 714 720 723 721 724 725 729 730 721 721 725 718 711 707 707 706 709 719 724 727 734 738
812 811 809 808 807 805 804 803 802 801 800 798 797 796 795 794 793 792 791 791 790 790 790 789 789 788 787 785 781 774 767 757 749 750 749 750 750 750 752 750 751 752 752 753 750 750 749 749 748 745 746 744 740 739 733 731 731 733 735 731 727 725 722 720 717 715 716 722 724 725 729 729 726 726 722 722 720 714 711 708 708 708 708 717 723 726 732 738
811 810 808 807 806 804 803 802 801 800 798 798 796 795 794 793 792 791 790 790 789 789 788 788 788 787 787 784 781 774 761 752 750 750 749 750 750 750 750 749 749 748 749 750 748 748 747 746 744 741 744 740 736 735 731 734 733 728 729 729 726 724 719 717 718 717 718 720 724 730 734 729 722 724 725 722 717 711 709 708 708 710 710 714 721 726 731 737
809 808 807 806 804 803 802 801 800 798 797 796 795 794 793 791 791 790 789 788 787 787 786 787 786 786 786 782 779 771 755 750 751 750 749 750 750 750 749 748 747 746 745 746 745 745 743 743 740 737 739 737 734 733 729 731 728 720 723 725 725 724 718 716 718 717 717 719 723 731 734 729 722 726 731 723 713 711 710 709 709 711 711 714 721 726 730 736
808 807 806 804 803 802 801 800 798 797 796 795 794 793 791 790 789 788 787 787 786 786 785 785 785 785 783 780 777 765 751 749 749 749 750 750 750 749 748 747 746 745 743 741 742 741 740 739 736 736 739 737 734 732 727 723 721 717 719 724 722 722 720 717 718 716 717 719 720 726 731 728 723 726 729 720 711 710 712 711 711 712 712 717 723 726 730 735
807 806 804 803 802 800 799 798 797 796 794 793 793 791 790 789 788 787 786 785 784 784 784 783 784 783 781 777 770 759 752 751 748 748 750 749 749 748 747 747 745 745 743 740 738 738 739 737 735 737 736 733 735 735 726 718 718 718 719 726 724 722 724 720 717 716 718 722 717 723 736 734 727 725 720 713 709 707 709 712 712 711 711 717 722 725 729 733
806 805 803 802 801 799 798 797 795 794 793 792 791 789 789 787 786 785 784 783 783 782 782 782 781 781 780 771 760 756 756 752 748 748 748 748 748 746 746 746 745 745 743 741 738 736 737 736 735 735 731 731 733 729 721 715 718 721 721 726 728 730 728 719 716 715 719 722 714 725 745 740 727 720 712 708 705 704 710 713 711 709 709 713 719 725 730 733
805 804 802 801 799 798 796 795 794 792 791 790 789 788 786 785 784 783 782 782 781 781 780 780 780 779 776 764 754 754 753 750 749 746 744 746 746 744 744 743 743 743 742 741 739 736 735 734 733 733 729 728 726 722 721 721 722 724 725 726 729 737 731 715 712 715 720 719 711 724 745 737 722 715 708 703 701 704 712 714 711 709 708 711 718 724 731 735
804 802 801 800 798 797 795 794 792 790 789 788 787 786 784 783 781 780 780 779 779 779 778 778 778 776 772 760 750 747 745 745 745 741 741 744 743 741 740 741 741 740 741 740 739 737 734 732 732 734 731 727 725 727 729 729 726 726 733 735 731 735 730 713 707 711 719 718 710 724 739 733 719 708 701 699 699 701 710 713 710 708 709 717 726 732 737 739
803 802 800 798 797 795 794 792 791 789 788 786 785 783 781 780 778 778 778 776 777 777 777 777 774 774 771 755 745 742 740 738 736 735 737 740 740 738 737 738 738 738 739 738 737 737 734 732 731 731 731 729 730 732 733 733 731 726 731 737 732 731 730 718 705 702 712 716 712 721 731 729 718 704 695 695 698 699 706 712 710 712 721 732 742 748 750 748
802 801 799 797 796 794 792 791 789 787 786 784 783 781 779 777 775 775 774 775 775 774 775 773 769 772 764 749 743 739 732 729 729 730 732 734 736 736 736 734 733 734 735 735 736 734 734 733 732 731 730 730 728 731 740 741 736 729 727 731 728 724 727 722 709 698 703 713 715 718 724 723 713 701 693 691 695 698 704 710 715 729 743 748 752 756 760 762
801 799 798 796 794 792 791 789 787 786 784 782 781 778 776 772 771 772 771 772 772 773 774 769 771 772 752 737 738 731 725 724 724 726 727 728 731 733 734 731 729 731 732 734 733 732 734 733 732 733 731 729 725 727 740 738 731 730 728 731 728 720 719 718 709 696 698 712 716 716 721 720 711 701 693 688 692 696 700 712 726 741 753 757 760 761 764 770
800 798 796 795 793 791 789 787 786 784 782 781 779 776 772 767 766 768 767 767 768 768 766 760 765 762 734 722 726 724 724 725 722 724 723 722 727 730 730 729 726 727 731 733 732 729 731 732 733 733 729 726 723 722 728 725 720 721 720 723 726 720 713 709 702 690 692 711 716 714 717 717 713 703 694 687 686 693 704 720 734 740 749 760 766 766 767 772
798 797 795 793 791 789 787 785 783 782 781 780 778 775 770 762 759 762 763 763 760 757 753 747 750 748 730 721 723 721 722 722 722 721 720 720 723 726 727 726 723 724 727 728 728 725 726 734 732 728 724 721 720 718 718 716 713 712 712 714 717 717 710 701 696 686 687 707 714 710 710 711 711 701 693 688 683 694 715 731 739 743 749 757 761 766 769 770
797 795 793 791 790 787 785 783 781 780 780 779 778 776 770 762 759 759 760 760 755 751 748 742 742 742 735 727 724 723 719 717 719 718 719 719 719 723 723 721 722 723 723 721 722 721 724 730 725 719 718 715 716 716 714 715 713 710 708 709 709 712 706 694 691 685 685 702 709 706 708 709 705 698 692 687 685 702 722 732 739 743 748 752 754 761 765 766
795 793 791 790 788 786 783 781 780 778 778 778 777 774 769 764 762 760 761 758 750 748 747 742 739 736 733 730 726 726 723 718 716 715 716 716 716 719 718 717 719 718 718 717 718 723 726 724 717 714 713 712 713 712 712 714 714 712 707 707 707 704 702 694 687 681 682 699 708 703 708 708 700 696 691 685 691 713 725 727 733 737 742 749 752 757 762 766
794 792 790 788 786 784 782 780 778 777 777 776 774 771 768 765 763 761 763 761 750 743 741 740 738 734 731 728 724 727 726 719 716 712 711 713 713 713 713 715 715 713 715 715 714 721 724 718 711 710 710 711 711 709 713 715 715 714 709 708 704 696 701 702 689 680 679 693 703 700 706 706 698 696 691 687 700 720 728 727 729 731 735 742 747 752 759 763
792 791 789 787 785 783 780 778 776 774 774 773 771 769 767 766 765 763 764 763 751 737 732 732 732 730 728 726 723 725 723 717 716 711 706 709 710 710 709 710 711 710 709 708 708 712 714 708 704 706 707 708 710 709 711 716 716 712 707 706 701 692 695 695 684 678 680 691 697 699 711 710 701 701 698 699 712 723 728 730 732 733 734 739 745 750 753 756
791 790 787 786 785 781 780 777 773 772 771 769 768 767 767 766 764 764 767 764 748 730 724 724 723 721 721 724 722 719 720 715 712 709 704 704 706 707 707 704 706 708 704 704 707 707 704 699 698 703 704 704 708 707 705 711 717 714 705 699 695 689 688 688 683 683 696 707 700 703 725 722 703 701 700 705 721 728 727 730 733 736 737 741 746 749 752 754
790 789 786 785 784 781 779 775 771 771 769 767 767 766 766 765 764 765 766 763 745 721 711 713 716 712 710 714 714 717 721 711 706 707 703 702 701 702 705 701 700 702 698 699 704 702 696 691 693 699 701 702 705 704 700 704 714 715 702 693 691 687 685 686 686 692 710 717 700 700 726 727 707 702 697 700 720 729 727 727 729 733 737 740 744 747 750 753
790 788 786 784 782 782 779 773 772 771 768 768 767 766 765 764 765 764 765 761 735 705 697 702 706 702 698 701 705 713 714 701 700 705 700 701 700 698 703 700 698 698 690 694 705 698 689 688 692 695 698 701 704 703 697 697 709 709 694 690 693 690 688 684 685 696 704 705 701 697 711 724 714 701 691 693 715 727 725 727 727 728 733 737 741 744 747 751
789 786 785 783 781 781 779 775 773 770 769 769 767 766 765 764 764 763 767 759 720 690 690 694 695 694 692 694 699 703 699 690 697 701 695 700 699 696 701 696 694 695 684 691 704 694 684 687 690 692 697 699 698 698 691 692 703 699 686 689 692 691 688 678 680 690 689 701 717 703 701 724 720 697 686 689 710 726 724 725 726 724 729 732 736 741 745 749
787 785 783 781 779 778 778 776 773 770 769 768 767 766 764 765 764 762 767 755 716 695 697 694 693 693 689 692 697 699 695 687 689 692 693 698 695 694 699 692 688 692 684 685 692 686 681 681 680 687 695 693 692 691 685 690 697 690 684 688 689 689 686 681 685 687 687 709 725 705 697 722 723 699 689 691 708 725 721 719 723 722 724 728 732 738 743 746
785 783 781 780 777 775 775 774 771 770 769 768 767 766 764 765 764 764 765 750 726 714 710 703 698 691 686 692 698 698 696 686 680 686 693 694 693 694 694 688 685 687 686 683 683 679 675 674 674 679 686 685 685 686 682 686 691 687 686 687 691 694 688 691 691 686 701 721 718 699 691 711 723 706 690 687 696 711 715 715 719 720 722 725 729 735 740 743
783 781 780 778 776 774 774 772 769 769 768 768 767 765 764 763 762 763 755 739 733 729 719 712 705 693 687 692 696 696 696 687 679 687 695 692 694 698 694 692 688 688 690 687 683 677 672 677 676 673 676 678 680 685 683 683 685 687 687 686 696 705 701 706 701 694 717 727 710 696 685 699 722 708 685 678 678 693 708 711 713 717 720 723 726 731 736 739
780 779 777 775 774 772 773 771 768 768 768 768 767 764 764 763 761 757 741 730 737 738 730 726 720 708 696 690 693 694 693 690 682 685 692 691 694 697 695 692 688 692 696 691 687 682 675 676 676 673 673 674 679 688 688 684 685 689 689 689 705 720 722 729 721 709 720 718 699 692 688 696 709 696 680 674 670 681 696 701 705 710 714 719 723 728 733 736
778 775 773 772 771 770 770 769 768 768 767 767 766 763 765 767 760 748 738 736 741 741 737 732 724 716 704 693 689 689 689 688 682 682 687 689 692 695 693 686 680 685 690 686 689 690 684 678 675 673 671 666 670 686 694 691 689 693 693 696 708 722 736 743 731 719 723 716 696 686 689 697 697 686 678 672 667 670 680 690 697 702 707 714 718 724 730 734
774 772 771 769 769 768 768 767 767 767 766 766 765 763 767 767 756 745 742 740 739 737 734 732 727 716 705 694 685 682 686 684 677 681 686 687 692 695 693 685 676 675 678 680 685 689 693 689 674 668 671 667 668 678 686 686 689 692 687 689 698 707 725 738 730 727 730 721 703 693 695 699 697 688 674 666 665 665 672 683 690 696 702 708 715 722 728 733
771 770 769 767 767 766 765 767 766 766 766 765 764 764 764 759 748 746 746 741 739 738 733 728 723 713 702 695 684 675 679 679 674 680 686 686 689 690 688 683 675 670 670 678 682 681 690 688 669 666 673 675 680 677 671 679 692 691 681 687 694 692 702 719 718 716 722 723 712 702 696 688 686 684 670 663 666 665 672 683 689 696 700 706 717 723 727 734
770 769 768 766 766 764 765 765 765 766 765 765 766 762 757 753 748 745 744 742 741 742 737 724 713 708 702 695 686 674 670 672 675 681 685 684 685 684 683 679 671 666 663 670 677 677 685 686 670 669 675 675 683 680 667 675 689 689 686 688 686 679 686 708 716 709 717 730 716 701 698 689 689 693 677 669 674 672 676 686 691 697 699 707 720 725 730 736
770 768 767 765 764 763 764 763 764 766 764 766 768 759 749 746 743 739 737 738 739 742 744 733 719 715 708 696 686 675 669 673 677 681 683 684 683 679 679 675 667 663 656 660 669 669 678 688 675 672 681 677 675 677 669 667 676 686 691 683 680 684 684 695 714 720 727 735 717 701 703 701 704 708 690 680 686 685 682 687 693 699 702 711 723 729 733 736
770 768 765 763 762 762 762 762 764 764 764 768 767 757 748 740 733 731 732 735 739 742 743 737 728 724 718 705 688 671 669 678 681 678 678 682 679 672 674 673 666 661 653 654 664 662 668 688 682 673 683 680 670 677 680 669 666 675 678 675 684 703 702 696 709 724 732 737 725 708 702 698 699 702 695 691 693 691 687 687 694 701 706 713 724 731 734 735
770 768 763 760 760 760 761 763 762 762 766 767 760 752 745 735 727 726 727 731 738 740 737 732 728 725 721 713 696 676 669 677 681 675 673 679 676 667 667 668 665 662 654 651 660 660 661 681 688 675 673 677 676 682 685 675 670 671 672 676 682 692 697 695 698 708 721 732 730 717 708 700 689 683 688 693 689 689 692 691 692 698 705 713 722 728 732 733
770 768 763 759 760 760 760 762 761 763 766 761 754 749 739 729 726 724 724 730 735 735 731 728 729 727 719 713 705 688 672 670 676 673 668 672 673 667 663 662 663 662 656 652 655 658 660 675 690 681 670 677 683 680 676 675 679 681 679 683 687 685 685 689 690 690 702 719 726 725 719 701 680 671 677 684 685 687 690 691 692 693 701 713 718 721 727 730
770 768 762 758 760 760 760 762 761 760 760 755 751 745 734 727 727 723 723 728 730 732 731 731 732 729 724 719 709 695 679 669 671 670 663 666 671 670 661 656 659 659 659 659 656 658 665 674 686 687 680 684 682 671 668 670 675 680 679 678 685 688 688 699 703 688 685 700 710 719 721 702 680 672 671 674 681 684 684 688 692 691 697 711 717 718 724 728
768 763 758 758 760 759 760 761 757 755 756 752 742 733 728 728 728 725 724 726 728 730 731 733 732 728 728 723 707 697 688 674 669 667 660 661 665 663 657 653 654 656 659 662 656 653 661 671 686 692 684 680 676 669 670 669 665 671 675 670 675 682 684 698 709 695 686 692 693 703 715 706 687 677 673 675 679 681 682 686 689 689 694 707 716 718 723 728
765 760 757 759 759 758 760 758 750 747 747 742 732 728 728 730 730 728 729 731 731 732 732 732 729 725 721 715 703 698 692 677 667 662 657 659 658 653 650 651 653 655 659 661 655 654 661 673 689 696 685 675 671 669 670 668 666 673 676 668 669 674 675 682 688 685 690 697 695 706 719 711 693 681 679 681 680 679 681 683 687 694 700 708 715 719 724 729
767 760 757 757 757 757 759 755 746 741 738 732 730 731 729 729 733 734 734 735 734 735 734 728 722 718 713 707 702 698 690 677 666 658 655 657 655 648 644 648 652 654 657 657 654 658 669 677 686 696 697 691 688 685 682 677 673 674 675 672 669 668 671 678 677 679 694 699 693 705 719 709 694 686 685 686 685 685 685 686 692 700 705 711 716 721 726 731
768 761 754 754 756 756 755 751 747 746 740 736 735 733 730 728 730 730 731 731 729 730 731 724 716 712 706 701 699 693 683 672 664 659 654 654 654 648 643 647 653 654 654 653 651 658 670 676 681 694 703 704 702 696 688 683 677 671 671 674 671 666 669 677 681 691 704 701 690 698 711 707 695 690 692 694 696 699 698 697 700 704 709 714 719 724 728 732
771 766 759 754 752 751 749 747 748 749 746 745 741 733 730 729 725 724 726 726 723 722 722 717 711 707 701 696 694 689 677 666 661 660 655 655 656 650 645 649 652 652 653 653 652 658 669 674 676 682 687 689 689 682 673 674 679 677 675 675 673 669 667 671 684 696 699 698 695 692 699 707 702 695 697 700 703 710 710 707 708 710 714 718 721 726 730 734
772 772 770 765 758 750 745 744 744 746 745 746 742 733 730 729 725 724 726 724 722 721 718 712 707 706 702 697 693 689 678 665 661 661 657 655 655 651 651 655 656 654 655 656 655 659 671 678 675 673 673 670 669 666 663 669 676 675 674 674 672 673 674 676 686 689 688 698 704 693 692 706 703 694 697 703 705 711 714 712 714 717 719 722 726 730 735 739
774 774 772 772 769 759 752 748 745 744 743 742 740 734 731 730 728 728 728 726 725 724 720 714 707 703 702 698 694 694 689 676 665 660 659 658 658 659 663 663 660 658 657 658 657 660 673 681 673 670 671 663 659 661 660 666 673 674 674 673 670 673 678 681 684 681 683 696 701 692 694 702 698 691 695 701 705 710 714 715 717 720 724 728 732 736 739 742
780 777 771 771 772 765 759 754 749 746 743 740 739 736 731 731 731 728 727 731 730 726 725 724 715 706 703 700 697 696 695 691 680 670 667 665 662 665 671 669 662 659 659 662 660 660 673 680 672 671 673 665 659 660 658 664 672 675 674 672 670 674 677 679 680 678 681 688 687 686 691 693 689 688 690 696 703 708 712 716 718 722 728 733 737 740 741 743
786 784 779 776 773 765 758 752 747 745 742 739 739 735 729 730 732 726 723 729 732 729 730 730 719 707 702 701 701 698 693 697 698 689 680 675 667 665 672 671 663 661 663 665 663 664 674 680 673 672 678 675 667 661 659 665 672 673 673 671 671 675 677 677 677 678 682 686 683 684 691 689 683 684 689 696 703 707 712 717 720 723 728 734 738 741 743 745
788 786 784 782 776 765 757 751 745 742 740 737 735 732 727 727 727 724 719 719 724 726 722 718 712 708 708 709 707 701 694 698 702 692 682 678 670 663 666 664 659 664 668 666 666 669 679 684 675 674 685 684 674 666 663 665 671 676 677 675 674 677 679 678 678 679 683 687 688 691 696 694 688 688 695 699 702 708 713 716 719 723 727 733 737 740 744 747
788 785 783 784 778 766 759 753 745 740 737 734 731 729 728 725 721 722 720 713 711 712 707 703 702 706 713 716 710 701 697 697 696 687 679 675 667 660 662 659 655 663 668 667 667 671 680 687 680 678 689 688 677 672 669 670 682 688 680 672 673 675 676 676 676 677 677 682 690 694 694 694 692 693 698 701 703 709 713 714 719 723 726 732 737 740 745 749